R/V Atlantis Calliope CSV data file  (Time stamps are GMT)
Date, Time_GMT, Dec_Lat, Dec_Lon, Depth12, Depth35, GPS_COG, GPS_SOG, Gyro, Air_Temp, IMET_BPR, IMET_SWR, HRH, PhinsHd, SBE45C, SBE45S, SBE45T, Salinity, SSTMP, SSV, SSCND, SST_FSI, SST_SBE48, Wnd_Dir, Wnd_Spd, HdChkSum=1B
2009/03/24, 00:00:04, 32.191050, -117.104283, , , 344.0, 11.60, 339.3, 13.033, 1013.71, 307.3, 61.197, 338.4, , , , 35.8674, 14.6827, 1506.6712, 43.5444, 8.9472, 14.6827, 300.0, 9.7904, 1B
2009/03/24, 00:01:02, 32.193550, -117.105267, , , 349.0, 11.70, 340.8, 13.018, 1013.93, 323.1, 61.865, 339.2, , , , 35.8804, 14.6722, 1506.6531, 43.5480, 8.9764, 14.6722, 302.9, 9.1008, 1B
2009/03/24, 00:02:02, 32.196533, -117.106400, , , 341.0, 11.30, 339.6, 13.018, 1013.73, 318.9, 60.161, 338.5, , , , 35.8880, 14.6628, 1506.6321, 43.5468, 9.0360, 14.6628, 311.9, 9.4951, 1B
2009/03/24, 00:03:02, 32.199550, -117.107533, , , 341.0, 11.30, 340.3, 13.025, 1013.97, 316.2, 62.839, 338.6, , , , 35.8993, 14.6545, 1506.6190, 43.5507, 9.0147, 14.6545, 310.6, 8.9732, 1B
2009/03/24, 00:04:02, 32.202517, -117.108583, , , 337.0, 10.50, 339.4, 13.025, 1013.87, 316.4, 61.757, 338.2, , , , 35.9142, 14.6490, 1506.6189, 43.5614, 9.0120, 14.6490, 308.5, 9.5528, 1B
2009/03/24, 00:05:02, 32.205500, -117.109700, , , 349.0, 11.00, 340.0, 12.994, 1013.88, 312.2, 58.249, 339.1, , , , 35.9157, 14.6421, 1506.5988, 43.5561, 9.0066, 14.6421, 304.0, 10.2442, 1B
2009/03/24, 00:06:02, 32.208500, -117.110850, , , 339.0, 11.30, 339.8, 12.994, 1013.91, 308.1, 60.959, 339.9, , , , 35.9265, 14.6384, 1506.5996, 43.5640, 9.0293, 14.6384, 306.9, 9.7422, 1B
2009/03/24, 00:07:01, 32.211533, -117.111967, , , 341.0, 12.00, 339.3, 13.002, 1014.22, 305.0, 61.496, 339.4, , , , 35.9183, 14.6337, 1506.5770, 43.5511, 9.0331, 14.6337, 306.1, 9.3656, 1B
2009/03/24, 00:08:02, 32.214533, -117.113117, , , 341.0, 11.10, 341.0, 13.018, 1014.27, 306.0, 61.588, 340.3, , , , 35.9338, 14.6298, 1506.5808, 43.5633, 9.0234, 14.6298, 307.8, 8.8815, 1B
2009/03/24, 00:09:02, 32.217533, -117.114217, , , 344.0, 11.30, 340.3, 13.033, 1013.44, 317.4, 62.525, 340.2, , , , 35.9564, 14.6244, 1506.5901, 43.5824, 9.0259, 14.6244, 305.6, 9.3248, 1B
2009/03/24, 00:10:02, 32.220550, -117.115367, , , 342.0, 11.10, 339.9, 13.033, 1014.16, 303.7, 60.667, 338.3, , , , 35.9615, 14.6187, 1506.5780, 43.5821, 9.0363, 14.6187, 312.2, 9.3782, 1B
2009/03/24, 00:11:02, 32.223550, -117.116550, , , 343.0, 11.50, 338.9, 13.025, 1013.57, 307.8, 61.205, 338.2, , , , 35.9622, 14.6133, 1506.5616, 43.5775, 9.0375, 14.6133, 310.8, 9.3003, 1B
2009/03/24, 00:12:01, 32.226550, -117.117783, , , 342.0, 10.80, 340.3, 12.994, 1013.86, 312.9, 60.522, 339.5, , , , 35.9712, 14.6088, 1506.5578, 43.5827, 9.0000, 14.6088, 312.6, 9.5945, 1B
2009/03/24, 00:13:01, 32.229583, -117.118917, , , 347.0, 11.80, 339.9, 12.979, 1013.88, 286.8, 60.690, 339.4, , , , 35.9741, 14.6049, 1506.5514, 43.5827, 9.0518, 14.6049, 316.8, 9.2078, 1B
2009/03/24, 00:14:02, 32.232617, -117.120067, , , 352.0, 11.60, 340.3, 12.964, 1013.99, 318.6, 62.801, 339.8, , , , 35.9779, 14.6009, 1506.5406, 43.5820, 9.0515, 14.6009, 307.2, 9.3519, 1B
2009/03/24, 00:15:01, 32.235683, -117.121217, , , 345.0, 11.20, 339.5, 13.033, 1013.85, 292.6, 63.154, 339.2, , , , 35.9845, 14.5997, 1506.5451, 43.5881, 9.0646, 14.5997, 305.3, 9.2576, 1B
2009/03/24, 00:16:01, 32.238717, -117.122367, , , 347.0, 11.60, 339.5, 13.025, 1014.07, 290.1, 62.371, 339.6, , , , 35.9849, 14.5993, 1506.5434, 43.5879, 9.0387, 14.5993, 305.5, 8.5798, 1B
2009/03/24, 00:17:01, 32.241767, -117.123467, , , 340.0, 11.30, 341.0, 13.041, 1013.85, 289.3, 63.637, 339.9, , , , 35.9910, 14.6009, 1506.5549, 43.5962, 9.0558, 14.6009, 303.0, 9.1200, 1B
2009/03/24, 00:18:01, 32.244800, -117.124617, , , 336.0, 12.00, 339.2, 13.041, 1013.71, 270.9, 60.890, 337.5, , , , 35.9854, 14.6015, 1506.5513, 43.5907, 9.0647, 14.6015, 314.5, 8.2669, 1B
2009/03/24, 00:19:02, 32.247767, -117.125783, , , 346.0, 11.20, 340.4, 13.041, 1014.02, 260.3, 58.633, 338.9, , , , 35.9905, 14.6036, 1506.5639, 43.5984, 9.0425, 14.6036, 311.0, 8.7081, 1B
2009/03/24, 00:20:02, 32.250783, -117.126900, , , 332.0, 11.40, 339.9, 13.072, 1014.05, 264.8, 60.115, 339.6, , , , 36.0001, 14.6034, 1506.5745, 43.6085, 9.0531, 14.6034, 311.9, 8.3269, 1B
2009/03/24, 00:21:02, 32.253817, -117.127983, , , 346.0, 12.00, 340.5, 13.095, 1013.97, 253.1, 60.798, 340.0, , , , 35.9946, 14.6029, 1506.5665, 43.6021, 9.0505, 14.6029, 307.0, 8.6366, 1B
2009/03/24, 00:22:01, 32.256883, -117.129150, , , 341.0, 11.80, 340.0, 13.095, 1013.97, 259.5, 61.780, 339.2, , , , 35.9983, 14.6000, 1506.5635, 43.6038, 9.1020, 14.6000, 314.6, 7.0928, 1B
2009/03/24, 00:23:02, 32.259967, -117.130317, , , 342.0, 11.80, 339.4, 13.087, 1013.87, 257.5, 59.462, 339.4, , , , 36.0016, 14.5963, 1506.5537, 43.6030, 9.0903, 14.5963, 303.0, 8.3239, 1B
2009/03/24, 00:24:02, 32.262983, -117.131500, , , 345.0, 11.60, 339.7, 13.118, 1013.82, 274.2, 61.949, 338.5, , , , 36.0107, 14.5918, 1506.5500, 43.6083, 9.0739, 14.5918, 303.8, 8.5463, 1B
2009/03/24, 00:25:02, 32.266017, -117.132733, , , 338.0, 11.50, 339.8, 13.149, 1014.07, 249.6, 62.517, 338.4, , , , 36.0255, 14.5890, 1506.5584, 43.6215, 9.0711, 14.5890, 310.5, 7.3003, 1B
2009/03/24, 00:26:02, 32.269067, -117.133933, , , 348.0, 12.10, 341.0, 13.149, 1013.84, 258.5, 59.109, 340.1, , , , 36.0213, 14.5846, 1506.5395, 43.6126, 9.0891, 14.5846, 307.9, 7.9513, 1B
2009/03/24, 00:27:02, 32.272133, -117.135117, , , 342.0, 11.50, 341.4, 13.141, 1013.98, 257.9, 59.785, 340.0, , , , 36.0365, 14.5792, 1506.5401, 43.6236, 9.0698, 14.5792, 313.6, 7.6218, 1B
2009/03/24, 00:28:01, 32.275133, -117.136233, , , 341.0, 11.50, 339.8, 13.172, 1013.62, 245.6, 57.351, 339.1, , , , 36.0404, 14.5711, 1506.5253, 43.6217, 9.0737, 14.5711, 316.6, 8.7808, 1B
2009/03/24, 00:29:01, 32.278150, -117.137450, , , 347.0, 12.10, 340.1, 13.179, 1013.75, 254.4, 59.639, 339.0, , , , 36.0456, 14.5627, 1506.5027, 43.6182, 9.0913, 14.5627, 305.4, 9.1811, 1B
2009/03/24, 00:30:01, 32.281167, -117.138650, , , 340.0, 11.80, 341.0, 13.195, 1013.94, 252.3, 61.358, 339.5, , , , 36.0613, 14.5551, 1506.4941, 43.6266, 9.1284, 14.5551, 315.8, 8.4616, 1B
2009/03/24, 00:31:01, 32.284150, -117.139817, , , 335.0, 10.90, 339.6, 13.195, 1013.40, 229.3, 61.358, 340.0, , , , 36.0656, 14.5446, 1506.4704, 43.6222, 9.1007, 14.5446, 318.8, 8.6950, 1B
2009/03/24, 00:32:01, 32.287167, -117.140983, , , 341.0, 11.70, 339.6, 13.172, 1014.03, 231.0, 59.347, 339.7, , , , 36.0853, 14.5367, 1506.4671, 43.6351, 9.0919, 14.5367, 317.6, 8.9499, 1B
2009/03/24, 00:33:01, 32.290150, -117.142150, , , 341.0, 11.20, 339.6, 13.179, 1014.01, 225.3, 58.841, 338.7, , , , 36.0916, 14.5314, 1506.4560, 43.6361, 9.1074, 14.5314, 320.5, 8.7918, 1B
2009/03/24, 00:34:02, 32.293083, -117.143350, , , 346.0, 11.30, 339.1, 13.195, 1013.81, 235.1, 62.271, 338.5, , , , 36.1033, 14.5306, 1506.4636, 43.6468, 9.1303, 14.5306, 312.2, 8.7126, 1B
2009/03/24, 00:35:02, 32.296050, -117.144583, , , 344.0, 11.50, 341.2, 13.195, 1013.61, 222.4, 61.059, 340.1, , , , 36.1005, 14.5315, 1506.4632, 43.6447, 9.1347, 14.5315, 313.7, 8.0380, 1B
2009/03/24, 00:36:02, 32.299033, -117.145733, , , 332.0, 11.30, 340.0, 13.195, 1013.54, 219.0, 60.030, 339.2, , , , 36.0890, 14.5323, 1506.4523, 43.6331, 9.0639, 14.5323, 314.7, 8.0786, 1B
2009/03/24, 00:37:02, 32.302033, -117.146850, , , 342.0, 10.80, 339.4, 13.179, 1013.78, 212.3, 60.905, 338.7, , , , 36.0976, 14.5341, 1506.4681, 43.6442, 9.1199, 14.5341, 306.7, 8.5362, 1B
2009/03/24, 00:38:02, 32.305050, -117.148017, , , 344.0, 12.20, 340.8, 13.187, 1014.07, 219.2, 60.736, 339.4, , , , 36.1012, 14.5347, 1506.4742, 43.6487, 9.1174, 14.5347, 304.7, 8.2983, 1B
2009/03/24, 00:39:02, 32.308050, -117.149183, , , 344.0, 11.40, 340.3, 13.202, 1013.74, 220.5, 60.974, 340.2, , , , 36.1056, 14.5346, 1506.4791, 43.6533, 9.1245, 14.5346, 305.6, 8.8184, 1B
2009/03/24, 00:40:01, 32.311050, -117.150367, , , 339.0, 11.80, 340.3, 13.179, 1013.93, 213.1, 60.713, 339.8, , , , 36.0984, 14.5312, 1506.4630, 43.6431, 9.1052, 14.5312, 311.0, 8.3153, 1B
2009/03/24, 00:41:02, 32.314067, -117.151517, , , 340.0, 11.40, 340.0, 13.179, 1014.16, 198.8, 61.113, 339.0, , , , 36.1178, 14.5254, 1506.4641, 43.6572, 9.1414, 14.5254, 310.7, 8.4719, 1B
2009/03/24, 00:42:02, 32.317067, -117.152683, , , 346.0, 11.00, 339.7, 13.187, 1013.96, 209.9, 59.409, 339.4, , , , 36.1231, 14.5178, 1506.4461, 43.6553, 9.1370, 14.5178, 305.3, 8.9902, 1B
2009/03/24, 00:43:02, 32.320083, -117.153850, , , 343.0, 11.10, 338.9, 13.210, 1014.04, 210.1, 59.240, 338.0, , , , 36.1409, 14.5059, 1506.4290, 43.6625, 9.1504, 14.5059, 305.6, 9.1465, 1B
2009/03/24, 00:44:02, 32.323083, -117.155050, , , 338.0, 10.80, 341.2, 13.210, 1013.73, 191.5, 58.434, 339.4, , , , 36.1637, 14.4900, 1506.4050, 43.6711, 9.1579, 14.4900, 314.5, 8.7044, 1B
2009/03/24, 00:45:02, 32.326100, -117.156200, , , 345.0, 11.20, 339.3, 13.210, 1013.75, 191.0, 58.756, 338.9, , , , 36.1816, 14.4712, 1506.3661, 43.6714, 9.1430, 14.4712, 307.6, 8.9519, 1B
2009/03/24, 00:46:02, 32.329083, -117.157400, , , 342.0, 10.80, 340.7, 13.210, 1014.03, 205.1, 60.468, 338.7, , , , 36.2037, 14.4490, 1506.3211, 43.6728, 9.1346, 14.4490, 315.0, 8.5620, 1B
2009/03/24, 00:47:01, 32.332050, -117.158567, , , 338.0, 11.40, 340.1, 13.241, 1013.53, 181.2, 58.534, 339.0, , , , 36.2142, 14.4246, 1506.2683, 43.6635, 9.1340, 14.4246, 316.8, 8.0727, 1B
2009/03/24, 00:48:02, 32.335033, -117.159683, , , 352.0, 11.20, 341.1, 13.249, 1014.00, 193.0, 56.967, 339.9, , , , 36.2481, 14.3993, 1506.2145, 43.6705, 9.1559, 14.3993, 307.0, 9.0013, 1B
2009/03/24, 00:49:01, 32.338033, -117.160783, , , 337.0, 11.30, 340.8, 13.256, 1013.40, 180.3, 58.702, 340.2, , , , 36.2740, 14.3757, 1506.1832, 43.6788, 9.1491, 14.3757, 318.6, 7.9482, 1B
2009/03/24, 00:50:02, 32.341083, -117.161900, , , 346.0, 11.40, 340.9, 13.264, 1013.70, 187.9, 56.392, 339.2, , , , 36.2962, 14.3530, 1506.1230, 43.6754, 9.1377, 14.3530, 313.2, 8.2890, 1B
2009/03/24, 00:51:02, 32.344117, -117.163083, , , 335.0, 11.20, 340.3, 13.280, 1013.67, 183.3, 57.635, 339.8, , , , 36.3302, 14.3281, 1506.0832, 43.6868, 9.1575, 14.3281, 321.0, 8.1904, 1B
2009/03/24, 00:52:01, 32.347150, -117.164233, , , 339.0, 11.60, 340.8, 13.287, 1013.70, 182.3, 57.436, 339.4, , , , 36.3466, 14.3000, 1506.0279, 43.6808, 9.1508, 14.3000, 316.1, 7.9395, 1B
2009/03/24, 00:53:02, 32.350217, -117.165433, , , 339.0, 11.30, 339.7, 13.295, 1013.91, 167.7, 59.032, 339.3, , , , 36.3853, 14.2694, 1505.9600, 43.6865, 9.1607, 14.2694, 314.7, 7.7702, 1B
2009/03/24, 00:54:01, 32.353267, -117.166650, , , 341.0, 11.60, 340.1, 13.326, 1013.85, 181.0, 60.936, 339.7, , , , 36.3935, 14.2452, 1505.9023, 43.6740, 9.1831, 14.2452, 311.0, 7.7563, 1B
2009/03/24, 00:55:02, 32.356267, -117.167833, , , 344.0, 11.70, 341.2, 13.341, 1013.97, 163.3, 60.023, 340.4, , , , 36.3947, 14.2429, 1505.8861, 43.6697, 9.1859, 14.2429, 309.1, 7.2313, 1B
2009/03/24, 00:56:02, 32.359317, -117.169050, , , 338.0, 11.30, 339.7, 13.341, 1013.67, 167.5, 59.094, 338.9, , , , 36.3968, 14.2541, 1505.9245, 43.6833, 9.2003, 14.2541, 307.1, 8.1429, 1B
2009/03/24, 00:57:02, 32.362367, -117.170283, , , 339.0, 11.70, 339.5, 13.333, 1013.57, 156.5, 59.508, 339.0, , , , 36.3745, 14.2765, 1505.9700, 43.6821, 9.1850, 14.2765, 307.3, 8.0704, 1B
2009/03/24, 00:58:02, 32.365433, -117.171550, , , 338.0, 11.80, 340.0, 13.341, 1013.71, 167.4, 62.563, 339.3, , , , 36.3633, 14.3031, 1506.0421, 43.6970, 9.1749, 14.3031, 309.8, 7.4804, 1B
2009/03/24, 00:59:01, 32.368517, -117.172783, , , 343.0, 11.80, 340.7, 13.333, 1013.71, 153.2, 59.378, 339.8, , , , 36.3436, 14.3293, 1506.0894, 43.6981, 9.1763, 14.3293, 305.8, 8.0177, 1B
2009/03/24, 01:00:02, 32.371600, -117.174050, , , 339.0, 11.60, 340.8, 13.349, 1013.64, 147.2, 62.172, 339.7, , , , 36.3164, 14.3521, 1506.1438, 43.6962, 9.1997, 14.3521, 309.3, 7.5336, 1B
2009/03/24, 01:01:02, 32.374717, -117.175317, , , 344.0, 12.00, 340.0, 13.357, 1013.59, 149.5, 61.113, 339.0, , , , 36.3010, 14.3752, 1506.1996, 43.7030, 9.1869, 14.3752, 305.3, 7.6328, 1B
2009/03/24, 01:02:02, 32.377850, -117.176517, , , 343.0, 11.90, 344.6, 13.380, 1013.65, 138.4, 63.461, 343.9, , , , 36.2733, 14.3997, 1506.2454, 43.6980, 9.1688, 14.3997, 315.5, 7.1301, 1B
2009/03/24, 01:03:02, 32.381033, -117.177517, , , 356.0, 11.70, 347.1, 13.341, 1013.84, 136.9, 60.997, 345.6, , , , 36.2462, 14.4245, 1506.2928, 43.6939, 9.1870, 14.4245, 309.6, 8.0118, 1B
2009/03/24, 01:04:01, 32.384267, -117.178433, , , 345.0, 11.90, 345.3, 13.333, 1013.82, 139.7, 62.026, 345.3, , , , 36.2269, 14.4464, 1506.3282, 43.6914, 9.2183, 14.4464, 314.4, 7.4486, 1B
2009/03/24, 01:05:02, 32.387500, -117.179383, , , 351.0, 12.00, 345.6, 13.349, 1013.74, 136.9, 60.591, 344.8, , , , 36.2125, 14.4642, 1506.3799, 43.6976, 9.1921, 14.4642, 308.4, 8.2345, 1B
2009/03/24, 01:06:02, 32.390733, -117.180350, , , 344.0, 11.90, 345.9, 13.357, 1013.76, 125.1, 61.051, 344.5, , , , 36.2021, 14.4778, 1506.4111, 43.7001, 9.1851, 14.4778, 311.7, 7.9208, 1B
2009/03/24, 01:07:02, 32.393950, -117.181300, , , 341.0, 12.10, 350.4, 13.357, 1013.87, 127.0, 61.197, 351.4, , , , 36.1986, 14.4873, 1506.4373, 43.7060, 9.2080, 14.4873, 325.7, 6.9769, 1B
2009/03/24, 01:08:01, 32.397217, -117.181867, , , 356.0, 11.80, 351.8, 13.333, 1013.97, 124.6, 62.003, 351.4, , , , 36.1930, 14.4950, 1506.4521, 43.7067, 9.1802, 14.4950, 319.7, 7.7447, 1B
2009/03/24, 01:09:02, 32.400517, -117.182417, , , 355.0, 12.20, 352.2, 13.349, 1013.82, 122.4, 63.637, 350.5, , , , 36.1884, 14.5000, 1506.4658, 43.7078, 9.2120, 14.5000, 313.7, 7.3830, 1B
2009/03/24, 01:10:02, 32.403800, -117.182967, , , 354.0, 12.10, 349.0, 13.349, 1013.85, 117.7, 62.379, 348.1, , , , 36.1933, 14.5017, 1506.4770, 43.7148, 9.1907, 14.5017, 309.0, 7.7409, 1B
2009/03/24, 01:11:02, 32.407083, -117.183650, , , 350.0, 11.80, 350.1, 13.349, 1013.80, 116.9, 63.944, 349.3, , , , 36.1873, 14.5002, 1506.4652, 43.7068, 9.2110, 14.5002, 307.6, 7.8050, 1B
2009/03/24, 01:12:01, 32.410367, -117.184283, , , 351.0, 11.90, 350.1, 13.326, 1013.85, 114.8, 62.333, 349.3, , , , 36.1895, 14.4936, 1506.4467, 43.7025, 9.2253, 14.4936, 308.4, 7.1446, 1B
2009/03/24, 01:13:01, 32.413650, -117.184917, , , 350.0, 11.70, 350.9, 13.349, 1013.94, 104.0, 62.701, 349.9, , , , 36.1992, 14.4837, 1506.4326, 43.7049, 9.2338, 14.4837, 312.5, 7.0645, 1B
2009/03/24, 01:14:02, 32.416900, -117.185483, , , 348.0, 11.50, 350.8, 13.333, 1013.75, 106.3, 62.962, 349.9, , , , 36.2100, 14.4785, 1506.4226, 43.7094, 9.2061, 14.4785, 314.6, 7.2103, 1B
2009/03/24, 01:15:01, 32.420150, -117.186083, , , 352.0, 11.60, 350.6, 13.341, 1013.75, 102.2, 64.052, 350.3, , , , 36.2051, 14.4924, 1506.4507, 43.7148, 9.1971, 14.4924, 307.0, 6.7519, 1B
2009/03/24, 01:16:01, 32.423400, -117.186667, , , 348.0, 11.90, 351.1, 13.341, 1013.85, 98.6, 65.003, 350.4, , , , 36.1805, 14.5131, 1506.4872, 43.7089, 9.2388, 14.5131, 308.1, 6.2019, 1B
2009/03/24, 01:17:01, 32.426633, -117.187233, , , 349.0, 12.00, 351.6, 13.364, 1013.84, 95.9, 63.538, 350.0, , , , 36.1572, 14.5310, 1506.5185, 43.7024, 9.2190, 14.5310, 313.1, 7.0156, 1B
2009/03/24, 01:18:01, 32.429850, -117.187817, , , 345.0, 11.50, 350.6, 13.364, 1013.93, 89.2, 63.883, 350.0, , , , 36.1518, 14.5424, 1506.5529, 43.7094, 9.2075, 14.5424, 315.6, 6.2241, 1B
2009/03/24, 01:19:01, 32.433100, -117.188400, , , 352.0, 11.50, 351.0, 13.364, 1013.75, 84.9, 63.883, 350.5, , , , 36.1402, 14.5484, 1506.5616, 43.7040, 9.2186, 14.5484, 314.4, 6.4515, 1B
2009/03/24, 01:20:01, 32.436350, -117.188967, , , 347.0, 11.80, 351.2, 13.380, 1014.08, 89.5, 64.174, 350.6, , , , 36.1379, 14.5526, 1506.5742, 43.7063, 9.2000, 14.5526, 313.1, 6.4533, 1B
2009/03/24, 01:21:02, 32.439617, -117.189533, , , 355.0, 12.00, 351.4, 13.380, 1014.08, 80.2, 64.389, 350.2, , , , 36.1415, 14.5547, 1506.5851, 43.7123, 9.2168, 14.5547, 307.9, 6.4963, 1B
2009/03/24, 01:22:01, 32.442850, -117.190083, , , 358.0, 11.70, 351.0, 13.364, 1013.94, 81.0, 63.576, 350.3, , , , 36.1443, 14.5553, 1506.5890, 43.7155, 9.2511, 14.5553, 315.3, 6.2074, 1B
2009/03/24, 01:23:02, 32.446100, -117.190617, , , 359.0, 12.20, 350.7, 13.395, 1014.17, 79.2, 62.479, 350.6, , , , 36.1419, 14.5561, 1506.5900, 43.7142, 9.2182, 14.5561, 300.6, 7.4757, 1B
2009/03/24, 01:24:02, 32.449317, -117.191183, , , 348.0, 11.60, 351.0, 13.395, 1013.96, 84.1, 59.869, 350.2, , , , 36.1552, 14.5537, 1506.5980, 43.7261, 9.2324, 14.5537, 312.7, 6.6179, 1B
2009/03/24, 01:25:02, 32.452550, -117.191717, , , 358.0, 11.70, 350.9, 13.434, 1013.96, 74.4, 59.708, 350.0, , , , 36.1557, 14.5521, 1506.5935, 43.7250, 9.2086, 14.5521, 307.4, 7.6300, 1B
2009/03/24, 01:26:02, 32.455800, -117.192250, , , 355.0, 11.70, 352.1, 7.163, 1014.05, 73.2, 52.114, 351.0, , , , 36.1598, 14.5493, 1506.5893, 43.7266, 9.2299, 14.5493, 313.6, 7.2631, 1B
2009/03/24, 01:27:02, 32.459050, -117.192733, , , 6.0, 12.30, 350.4, 13.449, 1013.89, 71.7, 58.595, 349.3, , , , 36.1655, 14.5482, 1506.5925, 43.7317, 9.2420, 14.5482, 304.1, 7.9616, 1B
2009/03/24, 01:28:01, 32.462300, -117.193333, , , 0.0, 12.10, 350.4, 13.503, 1013.90, 68.3, 61.941, 350.0, , , , 36.1741, 14.5471, 1506.6000, 43.7402, 9.2169, 14.5471, 313.3, 6.3943, 1B
2009/03/24, 01:29:01, 32.465550, -117.193867, , , 1.0, 12.10, 351.5, 13.488, 1014.15, 70.3, 57.597, 350.6, , , , 36.1685, 14.5466, 1506.5897, 43.7329, 9.2227, 14.5466, 315.1, 6.5246, 1B
2009/03/24, 01:30:02, 32.468800, -117.194400, , , 343.0, 11.40, 351.4, 13.488, 1013.86, 63.3, 56.430, 350.4, , , , 36.1837, 14.5489, 1506.6161, 43.7520, 9.2245, 14.5489, 322.2, 6.9618, 1B
2009/03/24, 01:31:02, 32.472033, -117.194933, , , 352.0, 11.80, 350.7, 13.495, 1014.17, 55.4, 57.428, 350.7, , , , 36.1755, 14.5541, 1506.6230, 43.7484, 9.2538, 14.5541, 319.8, 6.7747, 1B
2009/03/24, 01:32:02, 32.475300, -117.195467, , , 346.0, 11.40, 351.2, 13.511, 1014.04, 54.7, 57.474, 350.4, , , , 36.1745, 14.5638, 1506.6527, 43.7571, 9.2456, 14.5638, 323.3, 6.7801, 1B
2009/03/24, 01:33:01, 32.478550, -117.195983, , , 356.0, 11.70, 352.0, 13.518, 1014.23, 49.5, 57.367, 349.9, , , , 36.1690, 14.5768, 1506.6812, 43.7623, 9.2450, 14.5768, 315.5, 7.0167, 1B
2009/03/24, 01:34:02, 32.481750, -117.196517, , , 355.0, 11.20, 351.1, 13.541, 1013.76, 51.3, 59.677, 349.8, , , , 36.1447, 14.5906, 1506.7030, 43.7520, 9.2441, 14.5906, 314.1, 7.0510, 1B
2009/03/24, 01:35:02, 32.484983, -117.197083, , , 341.0, 11.50, 351.4, 13.534, 1013.85, 44.4, 59.892, 350.7, , , , 36.1338, 14.6015, 1506.7249, 43.7512, 9.2570, 14.6015, 328.5, 5.6255, 1B
2009/03/24, 01:36:01, 32.488250, -117.197567, , , 0.0, 12.10, 350.7, 13.526, 1013.89, 46.3, 56.630, 350.1, , , , 36.1344, 14.6083, 1506.7434, 43.7575, 9.2751, 14.6083, 318.4, 6.4572, 1B
2009/03/24, 01:37:01, 32.491483, -117.198150, , , 351.0, 11.80, 350.9, 13.526, 1014.02, 45.6, 57.551, 350.4, , , , 36.1404, 14.6154, 1506.7727, 43.7710, 9.2247, 14.6154, 318.3, 6.5154, 1B
2009/03/24, 01:38:02, 32.494733, -117.198650, , , 0.0, 12.00, 351.1, 13.518, 1013.99, 44.9, 60.836, 351.4, , , , 36.1189, 14.6249, 1506.7819, 43.7587, 9.2411, 14.6249, 307.4, 7.1204, 1B
2009/03/24, 01:39:02, 32.497900, -117.199150, , , 345.0, 11.60, 350.4, 13.518, 1014.03, 40.3, 58.610, 350.0, , , , 36.1077, 14.6335, 1506.7961, 43.7552, 9.2681, 14.6335, 322.8, 6.5449, 1B
2009/03/24, 01:40:02, 32.501100, -117.199683, , , 346.0, 11.90, 351.4, 13.518, 1014.06, 38.0, 58.887, 349.7, , , , 36.1148, 14.6404, 1506.8263, 43.7698, 9.2504, 14.6404, 317.9, 6.4471, 1B
2009/03/24, 01:41:01, 32.504283, -117.200183, , , 342.0, 11.80, 350.8, 13.495, 1014.15, 34.0, 57.305, 351.2, , , , 36.1158, 14.6471, 1506.8459, 43.7768, 9.2009, 14.6471, 320.8, 6.8148, 1B
2009/03/24, 01:42:01, 32.507467, -117.200667, , , 347.0, 11.60, 351.3, 13.518, 1014.35, 34.5, 59.025, 350.9, , , , 36.1016, 14.6559, 1506.8553, 43.7697, 9.2708, 14.6559, 318.9, 6.5611, 1B
2009/03/24, 01:43:01, 32.510667, -117.201200, , , 345.0, 11.10, 351.2, 13.495, 1014.19, 32.4, 58.603, 351.1, , , , 36.1022, 14.6640, 1506.8817, 43.7785, 9.2339, 14.6640, 318.2, 6.3480, 1B
2009/03/24, 01:44:01, 32.513867, -117.201700, , , 357.0, 11.20, 349.9, 13.495, 1014.05, 31.8, 59.347, 349.8, , , , 36.0949, 14.6757, 1506.9081, 43.7817, 9.2875, 14.6757, 300.4, 7.6819, 1B
2009/03/24, 01:45:02, 32.517050, -117.202267, , , 352.0, 11.60, 349.7, 13.495, 1014.33, 30.0, 59.539, 349.0, , , , 36.0833, 14.6898, 1506.9462, 43.7855, 9.2663, 14.6898, 311.9, 6.5822, 1B
2009/03/24, 01:46:02, 32.520267, -117.202867, , , 350.0, 11.70, 350.0, 13.503, 1014.03, 28.0, 59.201, 349.3, , , , 36.0775, 14.7059, 1506.9905, 43.7954, 9.2777, 14.7059, 314.4, 6.2771, 1B
2009/03/24, 01:47:02, 32.523500, -117.203450, , , 357.0, 11.60, 350.7, 13.472, 1014.11, 26.1, 57.497, 350.0, , , , 36.0586, 14.7220, 1507.0195, 43.7912, 9.2695, 14.7220, 311.0, 6.5265, 1B
2009/03/24, 01:48:02, 32.526717, -117.204067, , , 351.0, 11.40, 351.7, 13.495, 1013.96, 26.7, 57.674, 350.3, , , , 36.0451, 14.7363, 1507.0490, 43.7909, 9.2719, 14.7363, 319.0, 6.4504, 1B
2009/03/24, 01:49:02, 32.529900, -117.204617, , , 350.0, 11.40, 349.4, 13.495, 1013.98, 22.9, 59.355, 349.2, , , , 36.0336, 14.7501, 1507.0793, 43.7924, 9.2612, 14.7501, 310.7, 6.5600, 1B
2009/03/24, 01:50:01, 32.533100, -117.205200, , , 346.0, 11.60, 349.4, 13.495, 1014.20, 21.9, 59.969, 348.0, , , , 35.9988, 14.7620, 1507.0690, 43.7643, 9.2780, 14.7620, 316.5, 5.9437, 1B
2009/03/24, 01:51:02, 32.536333, -117.205850, , , 341.0, 11.80, 350.8, 13.480, 1014.17, 20.0, 59.040, 350.5, , , , 36.0173, 14.7716, 1507.1283, 43.7963, 9.2793, 14.7716, 327.1, 5.6247, 1B
2009/03/24, 01:52:02, 32.539583, -117.206433, , , 351.0, 11.70, 350.7, 13.480, 1014.34, 18.8, 57.274, 349.6, , , , 36.0148, 14.7794, 1507.1501, 43.8014, 9.2593, 14.7794, 317.9, 6.2068, 1B
2009/03/24, 01:53:02, 32.542817, -117.207017, , , 352.0, 11.40, 349.9, 13.503, 1014.25, 17.2, 60.253, 349.2, , , , 36.0212, 14.7866, 1507.1804, 43.8157, 9.2767, 14.7866, 313.9, 6.1404, 1B
2009/03/24, 01:54:02, 32.546050, -117.207633, , , 356.0, 11.40, 349.6, 13.472, 1014.13, 15.7, 56.752, 348.7, , , , 36.0088, 14.7924, 1507.1842, 43.8080, 9.2676, 14.7924, 314.6, 7.0663, 1B
2009/03/24, 01:55:01, 32.549300, -117.208217, , , 354.0, 11.90, 349.9, 13.503, 1014.28, 15.0, 58.833, 349.5, , , , 36.0089, 14.7991, 1507.2014, 43.8136, 9.2808, 14.7991, 313.4, 6.9144, 1B
2009/03/24, 01:56:02, 32.552550, -117.208817, , , 349.0, 11.40, 349.8, 13.480, 1014.22, 13.0, 57.750, 349.7, , , , 36.0087, 14.8023, 1507.2154, 43.8179, 9.3048, 14.8023, 317.8, 6.2231, 1B
2009/03/24, 01:57:01, 32.555817, -117.209417, , , 348.0, 11.90, 350.1, 13.488, 1014.25, 11.7, 59.301, 350.1, , , , 35.9977, 14.8021, 1507.2035, 43.8062, 9.3172, 14.8021, 321.3, 5.8578, 1B
2009/03/24, 01:58:02, 32.559050, -117.210000, , , 357.0, 12.00, 350.2, 13.503, 1014.33, 10.6, 61.020, 349.2, , , , 35.9978, 14.8011, 1507.1989, 43.8048, 9.2621, 14.8011, 309.9, 6.1389, 1B
2009/03/24, 01:59:01, 32.562250, -117.210583, , , 1.0, 11.40, 350.8, 13.495, 1014.08, 9.7, 61.903, 349.1, , , , 35.9982, 14.7949, 1507.1829, 43.8000, 9.2640, 14.7949, 312.6, 6.1904, 1B
2009/03/24, 02:00:01, 32.565500, -117.211200, , , 351.0, 11.80, 350.5, 13.503, 1014.18, 8.6, 63.238, 349.8, , , , 36.0233, 14.7838, 1507.1803, 43.8171, 9.2837, 14.7838, 321.3, 4.8727, 1B
2009/03/24, 02:01:01, 32.568783, -117.211783, , , 342.0, 11.90, 350.0, 13.488, 1014.16, 7.3, 62.394, 349.1, , , , 36.0336, 14.7709, 1507.1528, 43.8157, 9.2632, 14.7709, 321.3, 5.8196, 1B
2009/03/24, 02:02:01, 32.572033, -117.212400, , , 349.0, 11.40, 349.7, 13.511, 1014.41, 6.5, 64.819, 351.1, , , , 36.0376, 14.7571, 1507.1153, 43.8067, 9.2963, 14.7571, 323.3, 5.8463, 1B
2009/03/24, 02:03:01, 32.575267, -117.213017, , , 357.0, 12.20, 350.1, 13.480, 1014.41, 5.7, 64.972, 349.1, , , , 36.0618, 14.7434, 1507.1002, 43.8191, 9.3341, 14.7434, 313.1, 5.5601, 1B
2009/03/24, 02:04:01, 32.578533, -117.213600, , , 350.0, 11.90, 350.0, 13.480, 1014.16, 5.1, 63.000, 349.2, , , , 36.0768, 14.7247, 1507.0610, 43.8174, 9.2926, 14.7247, 321.3, 5.7999, 1B